Location: Ingoldesthorpe
(52.8667°N, 0.5167°E)
Time: 21:32:11
(UTC+00:00)

Cosmos 1842 - Pass Details

Date: 19 May 2025
Orbit: 440 x 450 km, 82.5° (Epoch: 18 June)

Event Time Altitude Azimuth Distance (km) Brightness Sun altitude
Exits shadow 23:38:52 42° 204° (SSW) 660 3.3 -17.1°
Maximum altitude 23:39:55 76° 281° (WNW) 473 2.9 -17.1°
Drops below altitude 10° 23:43:25 10° 8° (N) 1,603 6.9 -17.1°
Sets 23:45:31 0° 10° (N) 2,482 8.2 -17.1°
